Regional Weather Roundup
Issued by NWS

Home | Current Version | Previous Version | Text Only | Print | Product List | Glossary On
Versions: 1 2 3 4 5 6 7 8 9 10 11 12 13 14 15 16 17 18 19 20 21 22 23 24 25 26 27 28 29 30 31 32 33 34 35 36 37 38 39 40 41 42 43 44 45 46 47 48 49 50
000
ASUS43 KLMK 031010
RWRKY
KENTUCKY REGIONAL WEATHER ROUNDUP
NATIONAL WEATHER SERVICE LOUISVILLE KY
600 AM EDT SUN MAY 03 2015

NOTE "FAIR" INDICATES FEW OR NO CLOUDS BELOW 12,000 FEET
WITH NO SIGNIFICANT WEATHER AND/OR OBSTRUCTIONS TO VISIBILITY.

KYZ001>023-026-027-061>063-070>075-031100-
WESTERN AND SOUTH CENTRAL KENTUCKY

CITY           SKY/WX    TMP DP  RH WIND       PRES   REMARKS
PADUCAH        PTCLDY    50  48  93 S6        30.05S
HENDERSON      MOCLDY    54  46  76 CALM      30.06R
OWENSBORO      CLEAR     53  49  86 CALM      30.08R
HOPKINSVILLE   PTCLDY    53  49  87 CALM      30.08R
BOWLING GREEN  CLEAR     49  47  93 CALM      30.10S FOG
GLASGOW        CLEAR     46  46 100 CALM      30.10S
$$

KYZ024-025-028>034-038-045-046-053-031100-
NORTH CENTRAL KENTUCKY

CITY           SKY/WX    TMP DP  RH WIND       PRES   REMARKS
LOUISVILLE/SDF MOCLDY    54  48  80 SE3       30.09S
LOUISVILLE/LOU PTCLDY    52  47  83 CALM      30.10R
FORT KNOX      CLEAR     49  46  86 CALM      30.08R
$$

KYZ035>037-039>044-047>052-055>060-089>105-031100-
NORTHEAST KENTUCKY

CITY           SKY/WX    TMP DP  RH WIND       PRES   REMARKS
LEXINGTON      MOCLDY    49  44  83 SE6       30.11R
COVINGTON      MOCLDY    48  45  89 S3        30.09S
FRANKFORT      MOCLDY    48  44  86 CALM      30.09S
$$

KYZ054-064>069-076>088-106>120-031100-
SOUTHEAST KENTUCKY

CITY           SKY/WX    TMP DP  RH WIND       PRES   REMARKS
JACKSON        CLEAR     53  39  59 CALM      30.13R
LONDON         PTCLDY    46  40  79 CALM      30.13R
SOMERSET       MOCLDY    43  43 100 CALM      30.14R
MIDDLESBORO    CLEAR     41  41 100 CALM      30.16R
MONTICELLO     SUNNY     43  43 100 CALM      30.15R
$$




USA.gov is the U.S. government's official web portal to all federal, state and local government web resources and services.